Regional Weather Roundup
Issued by NWS

Home | Current Version | Previous Version | Graphics & Text | Print | Product List | Glossary On
Versions: 1 2 3 4 5 6 7 8 9 10 11 12 13 14 15 16 17 18 19 20 21 22 23 24 25 26 27 28 29 30 31 32 33 34 35 36 37 38 39 40 41 42 43 44 45 46 47 48 49 50
000
ASUS43 KIND 292309
RWRIN

WEATHER ROUNDUP FOR INDIANA
NATIONAL WEATHER SERVICE INDIANAPOLIS IN
700 PM EDT FRI APR 29 2016

NOTE: "FAIR" INDICATES FEW OR NO CLOUDS BELOW 12,000 FEET WITH NO
SIGNIFICANT WEATHER AND/OR OBSTRUCTIONS TO VISIBILITY.

* - STATION DOES NOT REPORT WEATHER SUCH AS PRECIPITATION OR FOG.

+ - STATION NOT QUALITY CONTROLLED BY THE NATIONAL WEATHER SERVICE.
    USE DATA WITH CAUTION...ESPECIALLY DEWPOINT AND RELATIVE
    HUMIDITY OBSERVATIONS.

INZ001>003-010>013-019-020-300000-
NORTHWEST INDIANA

CITY           SKY/WX    TMP DP  RH WIND       PRES   REMARKS
GARY /AIRPORT/ CLOUDY    45  45 100 N8        30.14R FOG
KNOX *+        CLOUDY    48  37  66 N6        30.09F
LA PORTE +     CLOUDY    48  46  92 N7        30.11S
MICHIGAN CITY+ CLOUDY    45  45 100 N6        30.12S
MONTICELLO +   CLOUDY    54  43  66 NE6       30.06F
RENSSELAER +   CLOUDY    52  45  76 N10       30.08F
VALPARAISO     CLOUDY    46  41  82 N5        30.11S

$$

LMZ046-743>745-300000-
SOUTHERN LAKE MICHIGAN

STATION/POSITION TIME  TEMP    WIND        PRES    WAVE
                       AIR SEA DIR/SP/G            HT
                 (UTC) (F)     (DEG/KT/KT) (MB)    (FT)
BURNS HARBOR     2220   42      30/  7/ 13 1020.7R
MICHIGAN CITY    2200   42     360/ 14/ 14   N/A

$$

INZ004-005-014>016-021>024-300000-
NORTH CENTRAL INDIANA

CITY           SKY/WX    TMP DP  RH WIND       PRES   REMARKS
ELKHART        CLOUDY    52  46  82 CALM      30.10S
GOSHEN         CLOUDY    52  44  74 NE7       30.09S
LOGANSPORT +   CLOUDY    54  45  71 N3        30.08F
PERU/GRISSOM   CLOUDY    56  47  72 NW6       30.06S
ROCHESTER +    CLOUDY    55  46  71 N5        30.08F
SOUTH BEND     CLOUDY    48  44  86 N8        30.11S
WARSAW +       CLOUDY    52  45  76 NE6       30.09S

$$

INZ006>009-017-018-025>027-300000-
NORTHEAST INDIANA

CITY           SKY/WX    TMP DP  RH WIND       PRES   REMARKS
ANGOLA *+      CLOUDY    54  45  71 NW3       30.09S
AUBURN +       CLOUDY    54  43  66 CALM      30.10S
FORT WAYNE     CLOUDY    53  45  74 N6        30.10R
HUNTINGTON +   CLOUDY   N/A N/A N/A NE7       30.07F

$$

INZ028-029-035-036-043>045-051>053-300000-
WEST CENTRAL INDIANA

CITY           SKY/WX    TMP DP  RH WIND       PRES   REMARKS
CRAWFORDSVL +  CLOUDY    58  48  71 N6        30.04F
GREENCASTLE +  MOSUNNY   61  52  72 NE7       30.04S
LAFAYETTE      PTSUNNY   56  47  71 N10       30.05F
TERRE HAUTE    MOSUNNY   64  49  57 E3        30.02S

$$

INZ030>032-037>040-046>048-054>057-064-065-300000-
CENTRAL INDIANA

CITY           SKY/WX    TMP DP  RH WIND       PRES   REMARKS
CP ATTERBURY + CLOUDY    63  48  59 NE3       30.03F
COLUMBUS       SUNNY     63  48  59 N5        30.03S
FISHERS *+     MOSUNNY   59  50  72 N3        30.04
FRANKFORT +      N/A     58  38  47 N6        30.07F
GREENWOOD *+   MOSUNNY   63  46  55 CALM      30.04S
INDIANAPOLIS   CLOUDY    63  46  54 N3        30.02S
-EAGLE CREEK   MOSUNNY   62  48  60 N7        30.03S
KOKOMO *+      CLOUDY    57  45  62 N9        30.06F
MARION +       CLOUDY    57  46  68 N8        30.08S
SHELBYVILLE    CLOUDY    64  49  57 N7        30.03R
ZIONSVILLE +   MOSUNNY   58  48  68 NE6       30.06S

$$

INZ033-034-041-042-049-050-058-059-300000-
EAST CENTRAL INDIANA

CITY           SKY/WX    TMP DP  RH WIND       PRES   REMARKS
MUNCIE         CLOUDY    60  47  61 N9        30.06S

$$

INZ060-061-067>069-081>083-085>088-300000-
SOUTHWEST INDIANA

CITY           SKY/WX    TMP DP  RH WIND       PRES   REMARKS
EVANSVILLE     CLOUDY    66  50  56 CALM      30.00F
HUNTINGBURG *+ CLOUDY    64  54  68 CALM      30.01F
WASHINGTON +   CLOUDY    65  52  64 CALM      30.02S

$$

INZ062-063-066-070>080-084-089>092-300000-
SOUTH CENTRAL AND SOUTHEAST INDIANA

CITY           SKY/WX    TMP DP  RH WIND       PRES   REMARKS
BEDFORD +      CLOUDY    64  59  82 E3        30.01S
BLOOMINGTON    CLOUDY    65  49  56 NE7       30.01S
MADISON *+     CLOUDY    64  46  52 CALM      30.05F
NORTH VERNON + CLOUDY    64  55  72 CALM      30.04R
SEYMOUR +      CLOUDY    68  50  52 E3        30.02S

$$





USA.gov is the U.S. government's official web portal to all federal, state and local government web resources and services.